Location: Deurze
(52.9838°N, 6.6090°E)
Time: 18:58:48
(UTC+00:00)

Cosmos 1758 Rocket - Pass Details

Date: 11 March 2026
Orbit: 594 x 629 km, 82.5° (Epoch: 20 April)

Event Time Altitude Azimuth Distance (km) Brightness Sun altitude
Rises 18:23:29 0° 200° (SSW) 2,908 7.2 -8.8°
Reaches altitude 10° 18:25:45 10° 204° (SSW) 2,006 6.4 -9.1°
Maximum altitude 18:30:08 59° 285° (WNW) 735 4.3 -9.8°
Drops below altitude 10° 18:34:34 10° 5° (N) 2,017 6.2 -10.4°
Sets 18:36:50 0° 9° (N) 2,926 7.0 -10.8°
